This is the latest recevied weather packets stored in our database for station/object N9BSW. If no packets are shown the sender has not sent any weather packets the latest 10 day(s).
| Time | Temp. | Humidity | Pressure | Rain* | Wind** | Luminosity | Snow |
|---|---|---|---|---|---|---|---|
| 1777844651 | 17.78° C | 42% | 1012.4 hPa | 0 mm | - | 280 W/m² | - |
| 1777844348 | 17.78° C | 41% | 1012.2 hPa | 0 mm | - | 308 W/m² | - |
| 1777844046 | 17.22° C | 41% | 1011.9 hPa | 0 mm | - | 247 W/m² | - |
| 1777843742 | 17.78° C | 40% | 1012.2 hPa | 0 mm | - | 276 W/m² | - |
| 1777843440 | 17.78° C | 40% | 1012.6 hPa | 0 mm | - | 396 W/m² | - |
| 1777843137 | 17.78° C | 40% | 1012.5 hPa | 0 mm | - | 303 W/m² | - |
| 1777842834 | 17.22° C | 40% | 1012.6 hPa | 0 mm | - | 273 W/m² | - |
| 1777842528 | 17.22° C | 42% | 1012.7 hPa | 0 mm | - | 320 W/m² | - |
| 1777842227 | 17.22° C | 41% | 1013.1 hPa | 0 mm | - | 161 W/m² | - |
| 1777841921 | 17.22° C | 40% | 1013 hPa | 0 mm | - | 359 W/m² | - |
| 1777841618 | 17.22° C | 40% | 1013.4 hPa | 0 mm | - | 287 W/m² | - |
| 1777841314 | 17.78° C | 40% | 1013.2 hPa | 0 mm | - | 346 W/m² | - |
| 1777841012 | 17.78° C | 40% | 1013.3 hPa | 0 mm | - | 311 W/m² | - |
| 1777840709 | 17.78° C | 40% | 1013.5 hPa | 0 mm | - | 262 W/m² | - |
| 1777840407 | 17.78° C | 40% | 1013.9 hPa | 0 mm | - | 339 W/m² | - |
| 1777840103 | 17.78° C | 40% | 1014.2 hPa | 0 mm | - | 436 W/m² | - |
| 1777839801 | 17.78° C | 40% | 1014.1 hPa | 0 mm | - | 345 W/m² | - |
| 1777839500 | 17.22° C | 39% | 1014.4 hPa | 0 mm | - | 327 W/m² | - |
| 1777839196 | 17.78° C | 39% | 1014.2 hPa | 0 mm | - | 204 W/m² | - |
| 1777838894 | 17.78° C | 39% | 1014.1 hPa | 0 mm | - | 271 W/m² | - |
| 1777838589 | 18.33° C | 39% | 1014.5 hPa | 0 mm | - | 409 W/m² | - |
| 1777838287 | 18.33° C | 38% | 1014.6 hPa | 0 mm | - | 697 W/m² | - |
| 1777837983 | 18.33° C | 36% | 1014.8 hPa | 0 mm | - | 514 W/m² | - |
| 1777837681 | 18.33° C | 36% | 1015 hPa | 0 mm | - | 628 W/m² | - |
| 1777837376 | 17.22° C | 40% | 1014.9 hPa | 0 mm | - | 566 W/m² | - |
* Rain latest hour (hover to see other rain measurements)
** Current wind speed in m/s (hover to see current wind gust speed)